Temperature
6 6 6 6 7 6 6 6 6 6 6 6 6 6 6 6 6 6 6 6 6 6 6 6 5 5 5 5 5 4 4 3 3 3 3 3 3 3 3 3 3 3 3
6 6 6 6 6 6 6 6 6 6 6 6 6 6 6 5 5 5 5 5 5 5 5 5 5 5 4 4 4 4 3 3 2 2 2 2 2 2 2 2 2 2 2
6 5 5 5 5 5 5 5 5 5 5 5 5 5 5 5 5 5 5 5 5 4 4 4 4 4 4 4 3 3 3 2 2 2 2 2 2 2 2 1 2 2 2
5 5 5 5 5 5 5 5 5 5 5 4 4 4 4 4 4 4 4 4 4 4 4 4 4 3 3 3 3 3 2 2 2 1 1 1 1 1 1 1 1 1 1
4 4 4 4 4 4 4 4 4 4 4 4 4 4 4 4 4 4 4 4 4 4 4 3 3 3 3 3 2 2 2 1 1 1 1 1 1 0 0 0 0 0 0
4 4 4 4 4 4 3 3 4 3 3 3 3 3 3 3 3 3 3 3 3 3 3 3 3 2 2 2 2 2 1 1 1 0 0 0 -0 -0 -1 -1 -1 -1 -1
3 3 3 3 3 3 3 3 3 3 3 3 3 3 3 3 3 3 3 3 3 2 2 2 2 2 2 2 2 1 1 1 0 0 -0 -0 -1 -1 -1 -1 -1 -1 -1
3 3 2 3 3 3 2 2 2 2 2 2 2 2 2 2 2 2 2 2 2 2 2 2 2 2 1 1 1 1 1 1 0 -0 -0 -1 -1 -1 -1 -1 -1 -1 -1
2 2 2 2 2 2 2 2 2 2 2 2 2 2 2 2 2 2 1 1 2 2 1 1 1 1 1 1 0 0 0 0 -0 -0 -0 -1 -1 -1 -1 -2 -2 -2 -2
2 2 1 1 1 1 1 1 1 1 1 1 1 1 1 1 1 1 1 1 1 1 1 1 1 0 0 0 -0 -0 -0 -0 -0 -0 -1 -1 -1 -1 -1 -2 -2 -2 -3
1 1 0 1 1 0 0 0 0 0 0 0 0 0 0 1 1 1 1 1 1 0 0 0 0 -0 -0 -0 -1 -1 -1 -1 -1 -1 -1 -1 -1 -1 -2 -2 -2 -3 -3
0 0 -0 -0 -0 -0 -0 -0 -0 -0 -0 -0 -0 -0 -0 0 0 0 0 0 -0 -0 -0 -0 -0 -1 -1 -1 -1 -1 -1 -1 -1 -1 -2 -2 -2 -2 -2 -2 -3 -3 -3
-0 -1 -1 -0 -0 -1 -1 -1 -1 -1 -1 -1 -1 -1 -1 -0 -0 -0 -0 -0 -1 -1 -1 -1 -1 -1 -1 -1 -1 -2 -2 -2 -2 -2 -2 -3 -3 -3 -3 -3 -3 -3 -3
-1 -1 -1 -1 -1 -1 -1 -1 -1 -1 -1 -1 -1 -1 -1 -1 -1 -1 -1 -1 -1 -1 -1 -1 -2 -2 -2 -2 -2 -2 -2 -2 -3 -3 -3 -3 -3 -3 -3 -3 -3 -3 -3
-1 -1 -1 -1 -1 -1 -2 -2 -2 -2 -2 -2 -2 -2 -2 -1 -1 -1 -1 -1 -2 -2 -2 -2 -2 -2 -2 -2 -2 -3 -3 -3 -3 -3 -3 -3 -4 -3 -4 -4 -4 -4 -4
-2 -2 -2 -2 -2 -2 -2 -2 -2 -2 -2 -2 -2 -2 -2 -2 -2 -2 -2 -2 -2 -2 -2 -2 -2 -2 -3 -3 -3 -3 -3 -4 -4 -4 -4 -4 -4 -4 -4 -4 -4 -4 -4
-2 -2 -2 -2 -2 -3 -3 -3 -3 -3 -2 -3 -3 -2 -2 -2 -2 -2 -2 -2 -2 -2 -2 -2 -3 -3 -3 -3 -4 -4 -4 -4 -4 -4 -4 -4 -4 -4 -4 -4 -4 -4 -5
-2 -3 -3 -3 -3 -3 -3 -3 -3 -3 -3 -3 -3 -3 -3 -3 -3 -3 -3 -3 -3 -3 -3 -3 -3 -3 -3 -4 -4 -4 -4 -4 -4 -4 -5 -5 -5 -5 -5 -5 -5 -5 -5
-3 -3 -3 -3 -3 -3 -3 -4 -4 -4 -4 -4 -3 -3 -3 -3 -3 -3 -3 -3 -3 -3 -3 -3 -4 -4 -4 -4 -4 -4 -4 -5 -5 -5 -5 -5 -5 -5 -5 -5 -5 -5 -5
-3 -3 -3 -4 -4 -4 -4 -4 -4 -4 -4 -4 -4 -4 -4 -4 -4 -4 -4 -3 -3 -4 -4 -4 -4 -4 -4 -4 -4 -4 -4 -5 -5 -5 -5 -5 -5 -5 -5 -5 -5 -6 -6
-3 -4 -4 -4 -4 -4 -4 -4 -4 -4 -4 -4 -4 -4 -4 -4 -4 -4 -4 -4 -4 -4 -4 -4 -4 -4 -4 -4 -4 -5 -5 -5 -5 -5 -5 -5 -5 -6 -6 -6 -6 -6 -6
-4 -4 -4 -4 -4 -4 -5 -5 -5 -5 -4 -4 -4 -4 -4 -4 -4 -4 -4 -4 -4 -4 -4 -4 -4 -5 -5 -5 -5 -5 -5 -5 -5 -5 -5 -6 -6 -6 -6 -6 -6 -6 -6
-4 -4 -5 -5 -5 -5 -5 -5 -5 -5 -5 -4 -4 -4 -4 -4 -4 -4 -4 -4 -4 -5 -5 -5 -5 -5 -5 -5 -5 -5 -5 -5 -5 -6 -6 -6 -6 -6 -6 -6 -6 -6 -6
-5 -5 -5 -5 -5 -5 -5 -5 -5 -5 -5 -4 -4 -4 -5 -5 -5 -5 -5 -5 -5 -5 -5 -5 -5 -5 -5 -5 -5 -5 -6 -6 -6 -6 -6 -6 -6 -6 -6 -6 -6 -6 -6
-5 -5 -5 -5 -5 -5 -5 -5 -5 -5 -5 -5 -5 -5 -5 -5 -5 -5 -5 -5 -5 -5 -5 -5 -5 -5 -5 -5 -6 -6 -6 -6 -6 -6 -6 -6 -6 -6 -6 -6 -6 -6 -6
-5 -5 -5 -5 -6 -6 -6 -6 -5 -5 -5 -5 -5 -5 -5 -5 -5 -5 -5 -5 -5 -5 -6 -6 -6 -6 -6 -6 -6 -6 -6 -6 -6 -6 -6 -6 -6 -6 -6 -6 -6 -6 -6
Wind_Speed
4 3 3 2 2 2 2 3 4 3 3 3 3 3 2 2 2 3 2 3 3 2 2 2 1 1 1 1 1 1 1 2 5 4 3 4 4 5 8 9 9 8 9
3 3 3 2 2 3 3 3 3 4 3 3 3 3 3 3 3 3 3 3 3 3 3 2 2 1 1 1 1 2 2 2 3 6 4 4 5 5 6 7 8 8 9
3 3 3 3 3 3 3 3 3 3 3 3 3 3 3 3 3 3 3 3 3 3 3 3 3 2 2 2 2 2 2 2 2 4 5 4 4 4 5 6 6 6 8
3 3 3 3 3 3 3 3 3 3 4 3 3 3 3 3 3 3 3 3 2 2 2 3 3 3 4 3 3 3 2 2 2 3 4 4 4 4 3 5 5 4 5
3 3 3 3 3 3 3 3 3 3 3 3 3 2 2 2 3 4 3 3 3 2 1 2 2 3 4 3 3 2 2 2 2 3 4 4 4 4 4 4 6 6 5
4 3 3 3 3 3 2 3 3 3 3 3 3 3 2 2 3 3 2 3 3 2 2 1 2 2 3 4 5 4 3 3 3 3 4 5 6 5 4 5 5 6 5
3 3 3 3 3 2 2 2 3 3 3 2 2 2 2 3 3 3 2 2 3 2 2 2 2 2 2 2 3 4 4 6 5 5 5 6 5 5 5 6 5 5 6
2 2 3 3 3 2 2 2 2 2 2 2 2 2 2 2 3 3 2 2 2 2 2 3 3 3 3 3 2 2 3 4 5 3 4 5 5 5 5 5 6 5 5
2 2 3 3 3 3 3 3 2 2 2 2 2 2 2 3 3 3 2 2 2 2 2 2 2 3 4 4 2 2 3 3 4 5 5 5 6 7 6 3 3 4 5
2 2 2 3 3 3 3 3 2 2 2 1 1 1 2 2 3 3 2 2 2 1 1 1 3 3 4 3 1 1 2 3 3 4 4 5 5 5 5 3 3 3 4
2 2 2 2 2 3 3 2 2 2 2 2 1 1 1 2 2 2 2 1 2 1 1 1 2 3 3 3 2 1 3 3 1 2 3 3 3 3 4 4 4 3 4
2 2 2 2 2 2 3 2 2 3 2 2 1 1 1 1 1 2 1 1 1 1 1 1 1 3 3 3 2 3 4 3 2 2 2 3 3 4 4 5 6 5 5
2 2 2 2 2 2 3 3 2 2 2 2 2 1 1 1 1 1 1 0 1 1 0 1 2 2 3 2 3 3 3 2 2 2 3 3 4 4 4 4 5 5 6
2 1 1 2 2 2 2 2 2 3 3 2 2 2 2 1 1 1 1 1 1 1 1 1 2 2 2 2 3 3 2 2 2 2 3 3 3 3 3 3 4 4 4
1 1 1 2 2 2 1 1 2 2 3 3 3 3 3 3 3 2 1 1 1 1 1 1 1 1 2 2 2 2 2 2 3 2 2 3 3 4 4 4 3 4 3
1 1 1 1 2 2 1 1 1 2 3 4 4 3 3 3 3 2 1 1 1 2 1 1 0 1 1 1 1 2 2 2 2 2 2 2 3 4 4 4 4 3 4
2 2 1 2 2 2 2 1 0 1 1 1 3 3 2 2 2 1 2 2 3 3 1 1 0 0 0 1 1 1 2 2 2 2 2 3 3 3 4 4 4 4 4
2 2 2 2 2 2 2 2 1 1 1 1 1 1 1 2 2 2 3 3 2 1 1 1 1 1 0 0 0 1 1 2 2 2 2 2 3 3 4 4 4 4 4
2 2 1 2 2 2 2 1 1 1 1 1 0 0 1 1 2 2 2 2 2 1 1 1 0 0 0 0 0 1 1 1 2 2 2 2 2 3 3 4 4 5 5
1 2 1 2 2 2 2 1 1 1 1 1 1 1 1 1 1 0 1 1 1 1 1 1 0 0 0 0 0 1 1 1 1 2 2 2 2 3 3 4 3 4 4
1 1 1 1 2 2 1 1 1 1 1 1 1 1 1 1 1 1 0 0 1 1 1 1 0 0 0 0 0 0 1 1 1 2 2 2 3 3 3 3 3 3 3
1 1 2 2 1 1 1 1 1 1 1 1 1 0 0 1 1 1 0 0 0 1 1 1 1 0 0 1 0 0 1 1 1 1 2 2 2 3 3 3 3 3 3
2 2 2 2 2 2 1 1 1 1 0 1 1 1 1 1 1 1 1 1 1 1 1 1 1 0 1 1 1 1 1 1 2 2 2 2 2 2 2 3 3 4 4
2 2 2 2 1 1 1 1 1 1 1 0 1 1 1 1 1 1 1 1 1 1 1 1 1 0 0 1 1 2 2 2 3 2 2 1 1 2 2 2 3 3 3
2 2 2 2 1 1 1 1 1 1 1 0 1 1 1 1 1 1 1 1 1 1 1 1 0 0 0 1 2 2 2 3 3 2 2 1 1 1 2 2 2 3 3
2 2 2 2 2 1 1 1 1 1 0 0 1 1 1 1 1 1 1 1 1 1 1 1 0 0 1 1 1 2 3 3 3 2 2 1 0 1 1 2 2 2 2
Wind_Direction
189 189 185 189 169 166 184 187 178 170 167 168 166 163 162 165 165 172 183 188 178 185 192 179 204 225 235 257 235 222 240 238 267 287 287 301 302 304 317 318 317 317 314
188 180 179 182 174 176 184 184 179 174 170 170 171 178 185 182 186 182 187 193 183 191 198 188 214 217 236 252 239 249 249 245 257 286 298 301 294 295 305 311 320 321 316
182 179 177 183 183 187 195 183 175 172 170 170 176 193 198 197 197 197 192 195 192 197 199 200 211 210 235 250 243 245 252 263 262 275 292 297 299 300 312 311 311 317 318
180 187 190 191 188 187 192 185 179 176 175 183 191 199 201 201 203 199 194 196 191 195 210 216 219 223 230 239 237 239 250 266 275 280 293 300 301 305 312 314 316 315 312
178 190 206 198 183 180 180 183 177 179 183 184 186 190 190 203 207 197 196 196 180 194 221 232 239 247 248 255 252 238 238 260 277 290 295 304 308 316 315 314 309 313 306
179 191 195 180 173 174 180 180 174 177 178 177 180 182 195 221 215 210 201 181 179 194 218 244 261 262 264 282 275 272 270 266 271 275 288 294 297 303 307 309 311 319 311
183 187 184 177 174 178 182 173 178 182 176 176 186 189 202 216 219 222 225 181 177 199 211 226 263 276 290 281 283 289 284 278 275 267 274 282 288 290 295 300 300 302 294
182 183 179 176 172 173 178 180 178 180 179 188 195 197 200 222 224 224 232 167 183 209 214 219 234 256 267 276 271 294 292 287 282 278 263 271 276 281 277 283 287 294 294
179 181 183 177 176 180 188 191 186 168 177 200 193 191 199 228 232 225 230 176 182 225 240 230 235 247 275 298 299 296 310 315 320 311 308 306 305 307 315 316 313 317 314
198 192 187 178 178 189 190 191 185 169 178 179 198 204 201 225 240 244 217 182 184 229 256 256 268 276 285 299 286 268 293 308 331 337 336 332 328 320 319 314 295 304 312
182 167 170 172 178 184 173 174 170 168 160 166 191 225 215 218 247 248 227 195 192 214 245 272 275 305 314 311 315 289 292 319 334 331 331 331 335 336 330 328 313 281 288
145 151 162 166 171 166 160 168 168 164 162 174 181 237 234 239 262 239 238 267 267 215 243 263 278 319 332 336 344 346 349 354 352 345 339 331 329 328 325 325 321 308 285
126 144 160 154 153 159 162 165 167 173 178 189 193 220 261 273 247 253 250 314 334 332 241 288 315 336 353 10 10 4 5 7 358 347 333 323 316 310 319 330 332 330 322
151 167 155 155 157 158 167 173 179 189 192 197 203 218 235 233 224 218 176 131 73 55 66 48 22 25 37 32 21 14 14 1 352 335 326 318 317 323 330 336 331 336 336
146 165 159 156 156 152 159 187 211 224 216 208 205 207 206 222 235 235 209 195 177 167 106 60 35 32 39 33 30 24 18 10 0 346 334 330 332 335 334 339 334 335 332
144 139 141 143 146 147 137 50 326 261 256 253 244 245 241 237 237 222 199 184 149 133 99 111 70 36 25 22 24 7 2 359 348 338 334 335 335 333 334 337 341 340 338
164 166 164 165 167 167 165 159 134 350 335 267 242 248 227 214 207 183 144 136 140 124 110 132 153 135 53 20 17 353 338 334 332 335 337 339 340 337 335 338 344 346 341
160 174 176 176 179 180 179 182 187 199 269 306 287 212 194 194 177 153 136 112 116 103 129 159 183 178 171 252 323 331 334 343 348 344 342 343 345 341 340 340 343 344 340
169 168 166 167 171 178 180 176 186 202 212 230 339 115 146 148 143 138 127 124 151 149 142 158 179 184 193 224 264 305 321 331 340 341 339 342 347 348 343 340 340 340 345
175 184 174 166 167 168 168 174 187 192 202 209 211 197 128 106 111 100 101 121 146 163 172 182 200 212 232 247 263 287 322 338 338 337 336 341 343 341 337 338 340 340 337
169 166 159 146 158 168 172 183 194 199 209 222 245 240 207 156 165 159 130 102 155 174 178 170 182 225 235 242 257 275 340 331 331 334 338 341 339 339 343 341 339 340 338
165 164 161 157 157 163 161 176 186 190 201 205 216 233 173 87 123 131 98 67 85 129 147 146 161 198 242 248 228 235 297 310 321 329 329 329 337 344 348 349 350 349 350
152 152 145 141 147 161 153 150 160 164 179 200 174 153 129 118 121 121 109 86 108 98 102 123 133 84 338 327 291 250 248 266 289 292 303 320 333 338 342 345 344 344 348
149 149 142 134 134 137 136 140 144 143 149 172 151 144 145 144 137 121 103 109 103 90 89 115 152 179 308 333 327 305 294 298 304 295 286 290 316 326 336 342 340 341 342
147 145 140 141 146 141 135 135 129 133 137 151 155 142 132 128 115 96 103 107 103 91 74 73 82 62 300 303 309 308 313 321 326 327 318 305 309 324 336 340 341 344 346
142 141 141 139 141 143 144 148 142 130 140 152 147 144 143 138 124 112 120 114 101 88 60 51 56 350 322 314 308 319 328 332 338 351 356 357 336 332 344 341 344 352 353
Height
1472 1474 1475 1476 1478 1479 1481 1482 1482 1484 1486 1487 1489 1490 1491 1492 1493 1495 1495 1496 1496 1496 1496 1496 1496 1496 1495 1494 1494 1493 1491 1490 1488 1486 1484 1483 1482 1480 1478 1476 1473 1471 1469
1468 1469 1471 1473 1474 1475 1477 1478 1479 1480 1482 1484 1485 1486 1488 1489 1490 1491 1492 1492 1492 1492 1492 1492 1492 1491 1491 1490 1489 1489 1488 1486 1485 1481 1480 1479 1477 1476 1473 1472 1469 1467 1465
1464 1466 1468 1469 1470 1471 1473 1474 1475 1476 1478 1480 1482 1483 1484 1485 1486 1487 1488 1488 1488 1488 1489 1489 1488 1488 1487 1486 1485 1485 1484 1483 1481 1478 1476 1474 1473 1471 1469 1467 1465 1463 1461
1461 1462 1464 1465 1466 1468 1469 1471 1471 1473 1474 1476 1478 1479 1480 1481 1482 1483 1484 1484 1484 1485 1485 1485 1484 1484 1483 1482 1481 1480 1479 1478 1477 1475 1472 1471 1469 1467 1465 1462 1459 1458 1456
1457 1458 1460 1461 1462 1464 1465 1467 1468 1469 1471 1472 1473 1474 1476 1477 1478 1479 1479 1480 1480 1480 1481 1481 1480 1480 1479 1479 1478 1476 1476 1474 1473 1471 1469 1467 1465 1463 1461 1458 1455 1453 1451
1454 1455 1456 1457 1458 1460 1461 1463 1464 1465 1467 1469 1470 1470 1471 1472 1474 1475 1476 1476 1476 1476 1476 1476 1476 1476 1475 1474 1474 1473 1473 1471 1469 1468 1466 1464 1462 1460 1458 1456 1453 1450 1446
1450 1451 1452 1453 1454 1456 1458 1459 1460 1461 1463 1464 1465 1467 1468 1469 1470 1471 1472 1473 1473 1473 1472 1472 1472 1471 1471 1470 1469 1469 1468 1468 1467 1465 1463 1461 1459 1457 1455 1452 1450 1447 1445
1447 1448 1449 1450 1451 1452 1454 1456 1457 1458 1459 1460 1461 1463 1464 1465 1466 1467 1468 1468 1469 1469 1469 1469 1468 1468 1467 1466 1466 1465 1464 1463 1462 1461 1460 1458 1456 1454 1452 1450 1447 1444 1441
1444 1445 1446 1447 1448 1449 1451 1452 1453 1454 1455 1457 1458 1460 1461 1461 1462 1463 1464 1464 1465 1465 1465 1465 1464 1464 1464 1463 1462 1461 1460 1459 1458 1457 1455 1454 1452 1451 1449 1446 1443 1440 1437
1442 1442 1443 1444 1445 1446 1448 1449 1450 1451 1452 1453 1454 1456 1457 1458 1459 1460 1461 1461 1461 1461 1461 1461 1461 1460 1460 1460 1459 1457 1456 1455 1454 1452 1451 1450 1448 1446 1444 1442 1440 1437 1434
1439 1440 1441 1441 1442 1443 1444 1445 1446 1447 1449 1450 1451 1452 1453 1454 1455 1456 1457 1457 1457 1457 1457 1457 1457 1457 1457 1456 1456 1454 1453 1452 1450 1449 1447 1446 1444 1442 1440 1439 1437 1435 1432
1436 1437 1438 1439 1440 1441 1441 1442 1443 1444 1445 1446 1447 1448 1450 1451 1452 1453 1454 1454 1455 1455 1454 1454 1454 1454 1453 1453 1452 1451 1450 1449 1447 1446 1444 1442 1441 1439 1437 1436 1434 1432 1430
1434 1434 1435 1436 1437 1438 1439 1439 1440 1441 1442 1443 1444 1445 1446 1448 1449 1450 1451 1451 1451 1452 1451 1452 1451 1451 1450 1450 1449 1448 1447 1446 1445 1443 1441 1440 1438 1436 1434 1432 1431 1429 1427
1431 1432 1432 1433 1434 1435 1436 1437 1438 1439 1439 1440 1441 1442 1443 1445 1446 1447 1447 1448 1448 1449 1449 1449 1449 1448 1447 1447 1446 1445 1445 1443 1442 1441 1439 1438 1436 1435 1433 1430 1428 1426 1424
1428 1429 1429 1430 1431 1432 1433 1435 1435 1436 1437 1438 1439 1440 1441 1441 1443 1444 1445 1445 1445 1446 1446 1446 1445 1445 1444 1444 1443 1443 1442 1441 1440 1439 1437 1436 1434 1432 1431 1429 1427 1425 1423
1425 1426 1426 1427 1428 1429 1430 1431 1433 1434 1435 1436 1437 1438 1438 1439 1440 1441 1442 1443 1443 1443 1443 1443 1443 1442 1442 1441 1441 1441 1440 1439 1438 1437 1436 1434 1433 1431 1429 1427 1426 1424 1421
1423 1424 1424 1425 1426 1426 1427 1428 1429 1431 1432 1433 1434 1435 1436 1436 1437 1438 1439 1439 1440 1441 1441 1441 1441 1440 1440 1440 1440 1439 1439 1438 1437 1436 1434 1433 1432 1430 1428 1426 1425 1423 1421
1422 1422 1423 1423 1424 1425 1425 1426 1427 1427 1428 1429 1431 1432 1433 1434 1435 1435 1436 1437 1437 1438 1438 1439 1439 1439 1439 1438 1438 1438 1437 1436 1435 1434 1433 1432 1431 1429 1427 1426 1424 1423 1421
1420 1421 1421 1421 1422 1423 1424 1424 1425 1426 1426 1427 1428 1429 1431 1431 1432 1433 1433 1434 1435 1435 1436 1436 1437 1437 1437 1437 1437 1436 1436 1435 1434 1433 1432 1431 1429 1428 1427 1425 1424 1422 1421
1419 1419 1419 1420 1420 1421 1422 1422 1423 1424 1425 1425 1426 1427 1428 1429 1429 1430 1431 1432 1433 1434 1434 1435 1435 1435 1435 1435 1435 1435 1434 1434 1433 1432 1431 1430 1429 1428 1426 1425 1424 1422 1420
1417 1417 1418 1418 1419 1419 1420 1421 1421 1422 1423 1424 1425 1426 1427 1428 1428 1429 1430 1431 1432 1432 1433 1433 1433 1434 1434 1434 1434 1433 1433 1432 1432 1431 1430 1429 1428 1427 1426 1425 1423 1422 1421
1416 1416 1416 1417 1417 1418 1419 1420 1420 1421 1421 1422 1423 1425 1426 1427 1427 1428 1429 1430 1430 1431 1431 1431 1432 1432 1432 1432 1432 1432 1432 1431 1431 1430 1429 1429 1428 1427 1426 1425 1423 1422 1421
1415 1415 1415 1416 1416 1417 1418 1418 1419 1420 1420 1422 1423 1423 1424 1425 1426 1427 1428 1429 1429 1430 1430 1430 1431 1431 1431 1432 1432 1432 1431 1431 1430 1429 1429 1428 1427 1427 1426 1425 1424 1422 1421
1414 1414 1415 1415 1415 1416 1417 1417 1418 1419 1420 1421 1421 1422 1423 1424 1425 1426 1427 1427 1428 1428 1429 1429 1430 1430 1430 1430 1430 1431 1430 1430 1429 1429 1428 1428 1427 1427 1426 1425 1424 1423 1421
1413 1413 1414 1414 1415 1415 1416 1417 1418 1418 1419 1420 1421 1421 1422 1423 1424 1424 1425 1426 1426 1427 1428 1428 1428 1429 1429 1429 1430 1430 1430 1429 1429 1428 1428 1428 1427 1427 1426 1425 1424 1423 1422
1412 1413 1413 1414 1414 1415 1416 1416 1417 1418 1419 1419 1420 1421 1421 1422 1423 1424 1424 1425 1425 1426 1427 1427 1428 1428 1428 1428 1429 1429 1429 1429 1428 1428 1428 1427 1427 1426 1426 1425 1424 1423 1422